This is the latest recevied weather packets stored in our database for station/object JS2WAD-13. If no packets are shown the sender has not sent any weather packets the latest 10 day(s).
| Time | Temp. | Humidity | Pressure | Rain* | Wind** | Luminosity | Snow |
|---|---|---|---|---|---|---|---|
| 1777180913 | 23.33° C | 44% | 906.7 hPa | 0 mm | - | 512 W/m² | - |
| 1777180613 | 23.33° C | 44% | 906.9 hPa | 0 mm | - | 612 W/m² | - |
| 1777180313 | 23.33° C | 44% | 907 hPa | 0 mm | - | 582 W/m² | - |
| 1777180013 | 23.33° C | 44% | 907 hPa | 0 mm | - | 610 W/m² | - |
| 1777179713 | 23.33° C | 45% | 907 hPa | 0 mm | - | 517 W/m² | - |
| 1777179413 | 23.33° C | 44% | 907.3 hPa | 0 mm | - | 439 W/m² | - |
| 1777179113 | 23.33° C | 44% | 907.4 hPa | 0 mm | - | 550 W/m² | - |
| 1777178813 | 23.33° C | 44% | 907.3 hPa | 0 mm | - | 434 W/m² | - |
| 1777178514 | 23.33° C | 43% | 907.5 hPa | 0 mm | - | 390 W/m² | - |
| 1777178214 | 23.89° C | 44% | 907.4 hPa | 0 mm | - | 534 W/m² | - |
| 1777177913 | 23.89° C | 43% | 907.5 hPa | 0 mm | - | 348 W/m² | - |
| 1777177613 | 23.89° C | 42% | 907.5 hPa | 0 mm | - | 297 W/m² | - |
| 1777177314 | 23.89° C | 42% | 907.5 hPa | 0 mm | - | 221 W/m² | - |
| 1777177013 | 23.89° C | 42% | 907.5 hPa | 0 mm | - | 204 W/m² | - |
| 1777176714 | 23.89° C | 41% | 907.5 hPa | 0 mm | - | 654 W/m² | - |
| 1777176414 | 23.33° C | 41% | 907.6 hPa | 0 mm | - | 851 W/m² | - |
| 1777176114 | 23.33° C | 41% | 907.6 hPa | 0 mm | - | 904 W/m² | - |
| 1777175814 | 23.33° C | 42% | 907.8 hPa | 0 mm | - | 877 W/m² | - |
| 1777175514 | 23.33° C | 42% | 907.8 hPa | 0 mm | - | 870 W/m² | - |
| 1777175214 | 22.78° C | 42% | 907.9 hPa | 0 mm | - | 257 W/m² | - |
| 1777174914 | 23.33° C | 41% | 907.9 hPa | 0 mm | - | 218 W/m² | - |
| 1777174614 | 23.33° C | 41% | 908.1 hPa | 0 mm | - | 925 W/m² | - |
| 1777174314 | 23.33° C | 41% | 908.1 hPa | 0 mm | - | 294 W/m² | - |
| 1777174014 | 23.33° C | 41% | 908.2 hPa | 0 mm | - | 914 W/m² | - |
| 1777173714 | 23.33° C | 40% | 908.1 hPa | 0 mm | - | 1013 W/m² | - |
* Rain latest hour (hover to see other rain measurements)
** Current wind speed in m/s (hover to see current wind gust speed)